This demonstration page uses our WeatherBlox Daily Observations layout. Learn more.

Left ArrowRight Arrow

Hourly Observations for July 21, 2016

Temp ( °F °C ) Dew Point ( °F °C ) Humidity (%) Winds ( mph kmh ) Pressure ( in mb ) Visibility ( mi km ) Precip ( " mm )
12:59 am 00:59 Clear 73 22.8 70 21.1 90 90 Calm 30.17 1022 9 14 0.00 0.00
1:59 am 01:59 Clear 72 22.2 70 21.1 94 94 Calm 30.17 1022 7 11 0.00 0.00
2:59 am 02:59 Clear 72 22.2 70 21.1 94 94 Calm 30.16 1021 8 13 0.00 0.00
3:59 am 03:59 Clear 72 22.2 69 20.6 91 91 Calm 30.16 1021 8 13 0.00 0.00
4:59 am 04:59 Clear 71 21.7 69 20.6 94 94 Calm 30.16 1021 7 11 0.00 0.00
5:59 am 05:59 Mostly Clear 72 22.2 71 21.7 97 97 Calm 30.16 1021 7 11 0.00 0.00
6:59 am 06:59 Mostly Sunny 72 22.2 71 21.7 97 97 Calm 30.17 1022 7 11 0.00 0.00
7:59 am 07:59 Mostly Sunny 79 26.1 73 22.8 82 82 Calm 30.19 1022 10 16 0.00 0.00
8:59 am 08:59 Mostly Sunny 82 27.8 70 21.1 67 67 Calm 30.19 1022 10 16 0.00 0.00
9:59 am 09:59 Mostly Sunny 84 28.9 69 20.6 61 61 NNW 5 7 30.19 1022 10 16 0.00 0.00
10:59 am 10:59 Mostly Sunny 85 29.4 68 20 57 57 VRB 5 7 30.19 1023 9 14 0.00 0.00
11:59 am 11:59 Mostly Sunny 87 30.6 67 19.4 51 51 NNE 8 13 30.18 1022 9 14 0.00 0.00
12:59 pm 12:59 Mostly Sunny 87 30.6 66 18.9 50 50 NNE 7 11 30.17 1022 9 14 0.00 0.00
1:59 pm 13:59 Mostly Sunny 87 30.6 66 18.9 50 50 N 7 11 30.17 1022 9 14 0.00 0.00
2:59 pm 14:59 Mostly Sunny 88 31.1 65 18.3 46 46 NE 5 7 30.15 1021 9 14 0.00 0.00
3:59 pm 15:59 Mostly Sunny 88 31.1 64 17.8 45 45 NE 7 11 30.14 1021 9 14 0.00 0.00
4:59 pm 16:59 Mostly Sunny 87 30.6 64 17.8 46 46 ENE 9 15 30.14 1021 10 16 0.00 0.00
5:59 pm 17:59 Mostly Sunny 86 30 63 17.2 46 46 ENE 7 11 30.12 1020 10 16 0.00 0.00
6:59 pm 18:59 Sunny 85 29.4 60 15.6 43 43 E 6 9 30.11 1020 10 16 0.00 0.00
7:59 pm 19:59 Mostly Sunny 82 27.8 62 16.7 51 51 ESE 6 9 30.11 1020 10 16 0.00 0.00
8:59 pm 20:59 Mostly Clear 79 26.1 66 18.9 65 65 SSE 5 7 30.12 1020 10 16 0.00 0.00
9:59 pm 21:59 Clear 78 25.6 66 18.9 67 67 SSE 5 7 30.14 1021 10 16 0.00 0.00
10:59 pm 22:59 Clear 77 25 68 20 74 74 S 3 6 30.14 1021 10 16 0.00 0.00
11:59 pm 23:59 Mostly Clear 77 25 68 20 74 74 SSE 5 7 30.14 1021 10 16 0.00 0.00

Powered by AerisWeather